222P/LINEAR (2019)

Japanese version
Home page
Updated on November 4, 2020

---------------------------------------------------------------------

* Profile

* Orbital Elements

Epoch 2019 June 6.0 TT = JDT 2458640.5
T 2019 June 5.05104 TT                                  MPCW
q   0.8283603            (2000.0)            P               Q
n   0.19968842     Peri.  346.21748     +0.99249753     +0.12181019
a   2.8989060      Node     6.81220     -0.10206938     +0.87290330
e   0.7142507      Incl.    5.09419     -0.06730893     +0.47244270
P   4.94
From 199 observations 2004 Dec. 9-2015 Jan. 27, mean residual 0".6.

* Finding Charts

* Magnitudes Graph

        H = 18.5  G = 0.15                        [   ,-71]  (             - 2019 Mar. 26)
        m1 = 17.5 + 5 log d + 20.0 log r(t - 10)  [-71, 91]  (2019 Mar. 26 - 2019 Sept. 4)
        H = 18.5  G = 0.15                        [ 91,   ]  (2019 Sept. 4 -             )

---------------------------------------------------------------------

The orbital elements are published on M.P.E.C. 2015-B177.
The charts are made with StellaNavigator Ver.10 (AstroArts).
The magnitudes graphs are made with Comet for Windows.

---------------------------------------------------------------------

Copyright(C) Seiichi Yoshida (comet@aerith.net). All rights reserved.